Temp
1 1 1 0 0 0 0 -1 1 2 2 1 3 5 9 11 13 13 13 14 14 15 16 17 18 18 19 19 20 18 21 20 18 19 20 20 21 21 20 18 18 18 18 19
1 1 1 1 0 0 0 -0 0 1 2 2 3 7 8 11 12 14 13 13 14 14 15 16 17 17 18 18 20 19 19 18 18 18 18 18 19 20 20 19 18 18 17 19
1 1 1 1 0 1 0 -0 1 2 1 4 6 7 8 9 10 12 13 14 14 14 14 15 15 15 15 16 19 19 18 20 19 18 19 21 19 20 20 20 18 19 19 20
0 0 1 1 0 1 0 0 2 4 2 2 6 7 9 9 10 11 12 13 14 14 14 14 15 15 15 14 13 17 19 19 19 20 21 21 20 20 20 19 20 19 20 21
1 1 1 1 0 1 -0 0 3 4 6 5 5 7 7 9 11 11 12 12 14 14 14 15 13 14 15 16 15 17 18 18 19 18 19 19 19 20 20 20 20 20 20 20
1 1 1 0 0 0 -0 1 3 6 5 6 4 5 7 8 11 12 12 13 14 13 14 13 13 13 14 15 16 16 16 18 17 17 17 17 14 17 19 20 19 20 19 21
1 1 1 1 0 1 -0 0 3 4 6 7 6 6 7 8 10 10 12 12 13 13 12 12 12 13 13 14 15 15 16 16 17 16 11 13 19 19 21 20 20 21 20 21
1 1 1 1 0 0 -0 0 3 4 5 8 8 7 7 7 9 10 11 12 12 12 12 12 11 10 13 14 16 15 16 16 14 13 15 18 17 15 18 18 19 21 21 21
1 1 1 1 0 0 -0 0 2 4 6 7 8 8 7 8 9 8 11 11 11 11 11 11 11 12 13 14 13 12 14 14 16 12 14 14 18 20 18 19 18 21 20 19
1 1 1 0 1 0 -0 0 2 3 5 6 7 8 6 7 9 9 10 10 10 11 11 8 10 12 14 13 13 10 11 11 12 14 13 17 17 15 16 16 18 19 19 18
0 1 1 1 1 0 -0 0 1 3 4 4 5 6 7 7 8 9 10 10 10 11 9 8 11 11 13 14 15 14 13 13 11 13 12 13 14 14 17 20 16 17 16 16
1 1 1 0 1 0 -0 -0 0 1 2 4 2 3 4 3 8 9 9 11 11 11 12 11 13 9 10 14 13 15 14 15 16 15 17 18 15 19 17 16 18 15 16 14
0 1 1 0 1 0 -1 -1 -0 0 1 2 1 3 4 3 4 6 9 10 12 11 12 12 12 10 12 10 13 15 14 12 14 15 18 17 15 16 13 13 14 13 13 13
1 1 1 0 0 -0 -1 -1 -0 0 1 3 5 3 3 4 5 6 6 10 9 10 10 11 9 10 14 14 15 15 17 15 15 17 17 14 14 13 14 13 15 15 13 11
1 1 0 0 -0 -1 -1 -1 -1 0 3 3 4 4 3 4 3 4 5 8 10 10 9 5 10 13 12 12 13 15 15 16 15 15 18 16 19 16 16 15 16 16 14 11
1 0 -0 -0 -1 -1 -1 -1 -1 -0 0 1 3 3 4 3 4 5 6 8 9 10 11 10 12 9 12 10 13 16 16 15 15 16 14 13 14 16 14 12 11 11 11 10
-0 -0 -0 -0 -1 -1 0 0 1 -0 1 1 2 3 3 4 5 6 7 8 8 9 10 8 11 10 10 7 12 16 15 13 11 12 12 12 12 12 13 12 11 9 7 6
-0 -1 -1 -1 -1 -1 1 1 1 0 1 0 2 3 2 5 6 6 7 7 7 7 9 6 9 6 7 9 14 14 12 9 9 10 11 11 12 9 8 8 6 6 4 3
-1 -1 -1 -1 -1 -0 0 1 2 2 1 1 1 3 4 4 4 5 5 6 5 5 6 8 10 7 9 12 14 12 10 9 11 7 7 8 6 6 6 5 3 3 2 1
-1 -1 -1 -1 -0 0 0 1 1 0 1 1 1 1 2 3 2 2 5 4 5 5 6 7 7 10 11 9 8 9 9 8 7 6 5 4 4 4 3 3 2 2 1 0
-1 -1 -0 0 1 1 1 0 1 1 1 1 2 2 2 2 2 3 3 4 4 7 7 8 8 9 9 5 5 5 6 6 6 7 7 6 5 2 2 1 1 2 -0 -1
-0 1 -0 0 1 1 1 2 1 2 4 3 4 4 2 2 1 2 2 4 2 6 4 7 7 6 3 2 2 3 3 3 4 4 5 3 3 2 1 -1 -2 -2 -2 -2
1 2 2 2 1 2 2 3 2 3 2 2 3 3 3 3 2 1 3 5 5 2 4 5 3 2 1 0 1 0 0 1 1 -0 0 1 0 -1 -0 -1 -2 -3 -3 -3
0 1 2 4 2 2 3 4 4 3 2 2 3 2 3 1 2 2 5 2 2 6 7 4 2 -1 -1 -1 -2 -1 -3 -2 -1 -2 -1 -1 -2 -3 -3 -3 -3 -3 -4 -4
-1 1 2 2 0 -0 -0 -0 0 0 2 3 2 2 2 2 3 2 3 4 4 3 3 1 -2 -2 -3 -3 -3 -3 -3 -2 -3 -3 -3 -4 -4 -4 -4 -4 -4 -4 -5 -6
-2 -2 -0 -2 0 -1 -2 -2 -1 -0 1 2 3 2 3 3 3 3 2 4 2 1 -1 -2 -3 -4 -4 -4 -4 -4 -4 -4 -4 -4 -4 -4 -4 -5 -5 -5 -6 -6 -6 -6
-2 -2 -4 -4 -3 -3 -3 -4 -3 -1 1 1 2 3 3 2 2 1 0 -0 -1 -3 -4 -4 -5 -5 -5 -5 -5 -5 -5 -5 -6 -6 -5 -6 -6 -6 -7 -7 -8 -8 -9 -9
Height
1392 1399 1407 1416 1425 1437 1444 1449 1451 1454 1461 1469 1456 1443 1435 1441 1442 1446 1447 1447 1445 1443 1440 1439 1438 1437 1437 1440 1445 1453 1451 1458 1466 1466 1461 1464 1461 1464 1468 1479 1480 1480 1482 1476
1374 1383 1392 1401 1411 1422 1431 1436 1444 1448 1452 1447 1445 1437 1440 1438 1438 1439 1442 1443 1443 1443 1442 1442 1436 1436 1437 1438 1440 1442 1449 1456 1467 1468 1468 1468 1465 1463 1465 1468 1474 1474 1482 1472
1355 1365 1375 1385 1397 1407 1421 1429 1436 1443 1441 1436 1430 1438 1431 1434 1439 1438 1438 1438 1440 1442 1441 1438 1438 1438 1438 1440 1438 1440 1445 1445 1452 1460 1454 1451 1462 1459 1460 1463 1470 1468 1462 1457
1335 1346 1357 1369 1381 1393 1405 1411 1408 1406 1417 1426 1424 1428 1424 1427 1430 1434 1435 1437 1435 1437 1440 1439 1438 1438 1439 1442 1442 1442 1442 1444 1445 1444 1444 1446 1449 1449 1452 1458 1456 1459 1454 1450
1316 1327 1338 1351 1366 1378 1389 1392 1393 1400 1398 1404 1412 1417 1419 1417 1422 1423 1423 1427 1432 1433 1435 1436 1440 1440 1438 1437 1442 1440 1441 1440 1441 1446 1444 1448 1449 1445 1446 1449 1448 1446 1447 1445
1300 1309 1322 1336 1349 1362 1368 1375 1388 1390 1390 1397 1409 1407 1410 1413 1417 1418 1422 1425 1426 1430 1430 1437 1442 1444 1443 1442 1441 1441 1441 1438 1445 1448 1447 1451 1461 1448 1443 1443 1444 1444 1444 1437
1285 1295 1306 1320 1333 1341 1355 1365 1378 1385 1378 1390 1393 1400 1409 1410 1411 1419 1421 1424 1425 1429 1433 1436 1441 1443 1443 1442 1440 1442 1440 1440 1440 1448 1464 1464 1434 1434 1433 1435 1434 1434 1435 1434
1272 1283 1294 1307 1322 1336 1350 1360 1369 1376 1380 1378 1385 1392 1399 1412 1415 1414 1418 1421 1425 1429 1433 1438 1441 1446 1440 1433 1434 1437 1437 1438 1444 1452 1446 1431 1433 1438 1435 1435 1432 1427 1428 1428
1259 1272 1284 1297 1313 1329 1344 1354 1366 1376 1380 1373 1377 1386 1393 1398 1404 1416 1413 1422 1424 1425 1431 1433 1432 1433 1431 1432 1434 1437 1436 1438 1435 1450 1443 1446 1423 1421 1426 1429 1430 1422 1424 1425
1247 1262 1277 1289 1306 1323 1337 1349 1362 1372 1374 1374 1377 1379 1389 1395 1397 1405 1411 1417 1422 1422 1423 1432 1431 1427 1422 1429 1432 1440 1439 1439 1439 1435 1437 1421 1418 1422 1426 1436 1424 1418 1421 1422
1237 1254 1269 1282 1300 1317 1331 1344 1355 1365 1372 1375 1378 1380 1383 1390 1392 1395 1401 1414 1414 1417 1421 1427 1420 1422 1418 1417 1413 1423 1427 1431 1436 1432 1439 1435 1418 1425 1421 1410 1413 1415 1417 1419
1230 1247 1262 1278 1296 1314 1332 1343 1355 1366 1374 1376 1377 1378 1382 1383 1389 1395 1398 1392 1401 1404 1408 1414 1411 1420 1420 1413 1417 1413 1419 1414 1414 1416 1408 1404 1407 1405 1407 1408 1409 1411 1413 1415
1229 1246 1263 1279 1296 1314 1328 1340 1351 1365 1374 1378 1378 1377 1380 1384 1384 1386 1393 1394 1395 1399 1400 1406 1406 1410 1408 1415 1409 1404 1408 1410 1411 1412 1399 1403 1405 1405 1405 1407 1409 1411 1413 1413
1232 1247 1264 1281 1299 1316 1329 1340 1351 1363 1373 1376 1371 1373 1375 1380 1383 1381 1386 1393 1395 1397 1400 1400 1403 1403 1398 1397 1396 1397 1396 1402 1402 1394 1398 1403 1399 1400 1399 1403 1404 1404 1409 1412
1239 1254 1271 1288 1304 1321 1334 1345 1354 1363 1370 1368 1369 1371 1372 1373 1376 1379 1384 1388 1390 1392 1396 1400 1397 1394 1398 1396 1396 1389 1394 1392 1395 1393 1390 1393 1391 1393 1395 1397 1397 1398 1401 1406
1251 1266 1280 1296 1311 1322 1336 1352 1359 1364 1369 1373 1365 1363 1361 1368 1369 1373 1377 1381 1385 1389 1389 1392 1390 1391 1395 1394 1384 1382 1385 1387 1388 1386 1388 1389 1391 1388 1394 1395 1396 1394 1397 1400
1265 1278 1292 1305 1316 1328 1340 1348 1350 1358 1367 1371 1368 1355 1351 1352 1359 1367 1374 1379 1383 1387 1387 1387 1386 1390 1391 1393 1384 1378 1382 1383 1384 1384 1385 1387 1387 1387 1388 1389 1390 1393 1395 1399
1280 1292 1304 1316 1328 1339 1345 1345 1346 1355 1367 1370 1361 1352 1346 1343 1345 1359 1368 1373 1381 1384 1383 1384 1384 1390 1390 1384 1377 1379 1381 1381 1381 1381 1381 1382 1384 1387 1386 1386 1391 1391 1397 1400
1295 1305 1316 1326 1336 1343 1346 1345 1351 1357 1363 1363 1360 1353 1342 1338 1346 1352 1362 1366 1375 1379 1380 1381 1381 1384 1379 1372 1372 1374 1375 1377 1379 1380 1379 1381 1385 1381 1383 1385 1389 1392 1396 1402
1306 1315 1324 1333 1338 1342 1346 1351 1354 1361 1361 1363 1355 1351 1357 1348 1339 1351 1356 1360 1368 1373 1373 1376 1376 1368 1372 1373 1373 1373 1375 1377 1378 1380 1382 1382 1384 1382 1387 1385 1390 1397 1399 1403
1314 1319 1324 1330 1337 1341 1343 1347 1350 1354 1353 1351 1352 1353 1354 1353 1349 1346 1351 1357 1363 1359 1363 1366 1366 1364 1369 1372 1371 1372 1373 1375 1376 1377 1378 1380 1380 1383 1387 1388 1393 1396 1402 1403
1317 1319 1326 1329 1334 1338 1342 1344 1344 1345 1339 1339 1341 1343 1349 1345 1342 1346 1352 1356 1364 1356 1361 1360 1361 1370 1374 1373 1373 1373 1375 1376 1376 1378 1377 1380 1380 1383 1387 1392 1397 1400 1404 1406
1324 1325 1327 1331 1334 1331 1333 1338 1342 1341 1338 1335 1337 1340 1341 1342 1341 1346 1350 1350 1353 1358 1358 1361 1371 1374 1374 1374 1375 1376 1378 1378 1379 1378 1379 1380 1381 1387 1392 1396 1401 1404 1407 1411
1324 1327 1328 1325 1332 1328 1319 1329 1331 1334 1332 1333 1336 1340 1341 1343 1343 1346 1341 1354 1354 1350 1347 1366 1377 1378 1378 1377 1378 1378 1381 1381 1378 1382 1383 1385 1390 1395 1399 1402 1407 1411 1415 1419
1324 1328 1330 1334 1337 1337 1331 1325 1328 1331 1333 1333 1336 1339 1341 1344 1345 1348 1351 1351 1355 1364 1370 1377 1381 1380 1380 1379 1380 1381 1382 1384 1386 1389 1391 1394 1398 1401 1405 1411 1415 1418 1421 1426
1336 1339 1339 1339 1338 1338 1337 1336 1335 1334 1334 1336 1339 1343 1344 1347 1350 1352 1359 1358 1368 1378 1382 1384 1383 1383 1384 1384 1386 1387 1389 1391 1393 1397 1400 1403 1406 1408 1412 1417 1422 1426 1429 1432
1343 1345 1347 1345 1344 1344 1343 1341 1338 1337 1337 1338 1340 1340 1347 1352 1355 1365 1373 1378 1383 1385 1387 1386 1387 1388 1389 1391 1393 1395 1397 1399 1402 1405 1409 1412 1415 1418 1421 1424 1430 1432 1434 1437
Wind_Speed
47 45 42 41 38 37 34 26 6 15 25 18 11 19 29 17 26 19 7 4 5 4 5 12 16 18 13 25 25 23 19 8 9 12 4 5 10 12 13 6 7 3 4 8
49 47 46 44 43 45 41 16 14 13 36 12 16 24 28 25 17 26 10 9 6 2 3 6 14 9 6 16 19 19 16 10 9 9 7 5 8 11 12 7 3 11 9 8
52 49 49 48 48 50 44 16 6 15 35 40 29 22 23 31 34 18 23 7 6 5 3 5 2 5 3 13 24 15 23 14 17 14 14 10 13 16 15 15 10 12 13 17
50 52 52 51 53 59 49 24 10 22 12 20 27 29 21 25 26 33 23 19 15 12 4 3 3 2 3 4 4 9 12 16 17 17 15 12 16 14 16 17 18 17 14 17
52 55 53 54 57 66 46 21 11 31 14 39 30 25 27 31 32 24 25 21 21 11 11 3 5 4 7 1 3 6 6 11 11 13 11 12 15 16 15 17 16 14 17 18
46 54 56 59 61 73 32 33 35 29 23 22 19 24 29 30 27 32 36 23 17 23 18 8 0 3 5 6 4 4 3 9 6 12 7 6 8 15 15 15 13 15 16 17
45 48 58 62 67 79 41 39 37 17 14 17 20 28 33 29 27 27 20 30 20 10 13 1 3 11 9 9 8 10 4 9 5 6 4 8 9 3 15 18 17 16 16 18
47 47 55 67 68 79 50 41 41 21 11 17 28 25 26 36 26 24 29 23 29 16 11 7 7 3 7 12 15 10 13 7 4 5 10 10 5 5 9 11 16 15 15 18
49 49 53 67 71 79 51 44 37 25 13 17 28 20 26 22 19 18 28 30 10 16 5 5 9 8 10 6 4 2 7 9 7 4 6 8 5 12 13 5 14 11 12 12
51 50 56 59 78 78 52 38 46 32 18 15 25 18 18 37 26 16 16 22 12 19 7 3 5 6 6 12 5 4 4 3 10 10 5 5 4 7 13 9 13 2 9 9
54 54 55 62 82 78 51 36 48 38 18 4 10 19 21 34 36 17 19 14 10 9 8 5 5 4 8 7 14 12 6 6 4 5 4 9 12 11 10 13 4 7 9 11
54 52 66 67 82 74 51 31 39 34 20 6 6 11 14 12 27 32 25 21 22 10 8 5 4 1 2 10 7 7 9 9 5 8 6 3 25 16 23 7 9 9 12 12
54 51 58 75 77 69 46 32 37 30 16 15 12 13 11 15 22 25 18 28 18 20 15 6 3 5 7 6 10 11 8 5 6 5 9 11 12 19 9 9 7 4 7 13
51 54 68 75 71 68 40 35 36 28 15 7 16 10 20 19 25 32 23 22 16 14 16 6 3 3 8 6 10 11 12 11 12 12 12 7 11 18 18 16 13 11 11 14
52 64 70 68 63 54 36 25 31 29 15 2 17 19 22 15 18 30 27 20 25 13 7 3 4 5 2 2 2 9 9 10 8 7 17 12 12 9 18 19 19 16 17 16
63 66 64 57 58 49 37 11 20 21 25 5 2 7 17 32 27 31 34 36 20 16 13 7 8 4 6 4 9 13 20 17 15 6 6 7 9 4 11 13 12 14 18 19
60 58 54 57 54 46 25 9 8 32 25 2 3 3 7 23 26 34 31 28 30 17 9 6 7 7 7 2 9 8 12 13 13 15 10 7 9 3 9 10 10 13 15 17
49 51 51 49 42 36 13 5 10 32 25 5 4 2 5 13 10 12 22 20 23 15 8 3 3 4 1 4 10 20 11 10 13 16 15 11 11 8 7 7 11 15 15 17
48 46 42 37 22 18 5 8 21 29 8 3 3 3 4 2 5 8 7 11 4 4 3 4 7 4 6 6 14 14 18 11 8 9 8 9 8 9 6 12 13 16 18 18
45 42 15 8 17 19 24 15 8 9 9 6 3 4 3 6 4 3 3 3 4 3 4 10 5 6 12 5 3 3 7 10 5 5 4 7 7 6 10 12 12 12 17 21
24 7 5 19 26 16 4 4 4 5 3 5 8 14 4 6 3 3 3 3 2 4 4 7 5 5 3 6 4 3 2 5 6 6 4 3 6 13 14 14 16 18 21 24
10 10 14 12 3 3 4 3 2 3 4 6 3 7 9 7 2 3 3 2 2 5 6 5 5 3 7 6 6 6 5 5 5 4 6 8 11 12 14 15 16 18 19 20
18 8 4 4 1 1 2 8 4 4 4 6 3 2 4 2 2 4 3 4 2 2 1 2 2 6 8 9 10 11 11 10 12 14 14 16 17 16 15 18 19 22 25 28
3 4 4 1 3 3 3 3 3 1 4 13 13 3 1 2 2 1 3 3 2 2 2 3 2 7 7 9 10 13 15 15 18 19 19 20 20 22 22 23 26 30 32 30
7 6 3 1 2 2 3 4 3 4 11 14 5 4 3 3 2 3 3 2 4 5 3 2 5 8 10 13 14 17 18 19 21 21 24 26 27 28 31 29 29 29 28 26
5 7 3 8 1 2 6 8 4 4 7 7 6 3 2 3 2 3 5 2 4 2 2 6 9 13 15 18 18 21 22 24 26 26 27 30 33 34 33 29 26 23 20 18
4 4 11 6 5 7 6 7 10 4 2 2 2 3 5 2 4 3 4 3 2 6 11 15 16 19 22 24 25 25 26 29 30 31 30 31 30 29 27 26 20 19 18 16
Wind_Direction
251 246 237 230 223 216 208 193 206 200 185 197 222 221 215 218 216 211 234 241 234 230 222 206 209 213 216 197 184 193 198 216 214 207 138 263 259 232 211 233 211 240 284 270
246 240 234 224 218 207 196 189 200 195 188 199 222 228 222 217 205 218 202 213 215 177 249 226 218 217 204 190 187 194 177 207 202 202 196 188 217 209 226 246 262 241 254 270
241 235 228 220 213 204 192 168 173 200 201 211 213 216 220 216 223 228 216 220 202 192 222 234 263 223 177 194 205 201 176 204 214 225 228 216 214 232 220 225 238 253 245 272
236 231 223 217 209 201 186 180 198 184 195 209 218 217 211 213 209 215 213 220 222 204 200 216 197 245 156 160 174 190 199 221 221 233 245 249 239 242 222 227 239 246 251 262
236 225 220 212 204 198 186 181 194 186 205 205 208 216 224 211 209 195 209 215 204 200 217 233 120 32 42 39 147 183 197 219 207 216 222 229 244 247 249 230 244 257 260 269
232 224 215 210 200 191 192 196 197 192 206 205 198 211 214 226 208 222 210 204 211 213 220 138 188 335 321 317 325 201 217 217 201 234 215 221 254 234 224 226 227 236 257 272
229 221 213 209 198 196 192 189 181 195 201 206 207 209 213 217 226 212 210 207 216 189 186 191 281 283 291 285 274 249 231 210 212 222 177 223 247 238 232 237 241 237 257 272
222 216 209 206 196 197 189 183 187 194 203 203 216 209 206 213 230 222 211 215 222 225 225 226 250 265 272 256 251 231 226 200 182 170 215 256 227 191 194 197 243 246 259 274
213 209 205 199 195 195 184 183 183 191 197 223 216 205 203 194 207 215 213 200 179 165 156 175 217 219 204 258 185 198 190 240 226 163 218 224 230 210 202 198 262 265 248 262
204 203 196 196 191 192 183 180 187 188 202 229 211 214 200 194 200 199 180 176 181 190 190 153 181 213 208 200 234 169 162 184 211 214 238 246 190 156 162 210 254 191 211 230
195 195 195 190 188 190 178 183 186 190 199 223 223 218 203 199 202 192 188 184 198 182 177 172 178 197 197 216 218 208 199 193 189 203 206 238 152 143 204 228 209 199 202 202
188 188 188 185 186 188 178 167 185 190 193 213 197 206 200 208 206 190 178 192 176 177 188 187 202 151 194 201 219 210 223 214 245 215 221 163 185 221 223 229 236 204 201 195
179 181 182 182 183 186 171 164 175 176 195 226 251 220 194 229 224 208 200 205 196 198 194 160 180 205 171 174 227 219 222 173 213 222 239 233 225 227 239 227 224 272 242 199
178 176 178 175 181 183 168 170 168 172 176 231 230 261 253 259 225 221 227 208 210 194 197 207 180 197 211 215 227 215 223 181 234 243 264 275 244 240 231 225 239 248 254 210
163 168 168 171 172 164 163 168 183 188 182 223 236 248 249 239 231 233 228 218 198 189 182 172 211 224 215 236 253 232 191 213 206 221 233 226 251 246 239 223 241 239 230 202
157 159 164 166 161 162 151 122 190 189 203 231 259 220 219 243 241 226 215 212 208 217 214 205 221 190 215 225 242 233 222 228 236 231 209 223 265 252 260 247 252 228 206 198
153 155 154 159 164 162 159 160 176 185 190 227 262 256 236 228 196 201 199 197 207 219 219 212 211 191 198 201 245 256 224 216 221 233 239 239 252 248 262 264 243 211 188 181
144 147 152 158 159 164 177 185 177 177 176 234 267 284 271 200 160 159 195 193 197 212 231 163 201 140 206 246 237 245 230 224 229 230 232 241 261 251 220 206 192 165 162 160
137 141 147 148 151 169 190 167 157 179 155 193 236 218 309 96 122 131 132 164 157 164 180 218 188 167 217 219 219 209 215 204 270 200 202 221 228 192 179 167 155 157 150 147
130 129 128 130 157 173 145 140 146 152 206 217 263 124 251 289 21 123 119 123 136 155 205 153 216 229 230 282 319 312 238 218 205 175 221 208 194 153 162 143 147 161 154 154
124 116 108 148 135 144 131 130 181 151 201 216 198 204 274 297 215 154 75 129 152 177 169 180 191 222 165 349 336 296 247 215 231 233 250 212 174 151 142 138 160 165 165 164
135 126 123 135 116 129 124 122 21 216 222 173 205 171 164 221 187 77 50 118 142 193 149 162 181 75 11 24 42 64 107 118 131 137 123 130 137 149 149 144 152 157 161 155
115 112 106 182 30 115 164 160 176 204 186 176 171 129 171 183 53 90 164 169 159 113 132 83 44 35 50 69 84 86 93 113 118 107 116 125 128 138 149 145 144 148 144 144
125 143 143 262 94 267 273 186 159 105 181 150 140 95 75 98 58 309 78 69 106 129 109 70 43 45 67 93 105 110 106 113 106 107 112 116 126 129 131 133 137 137 131 130
41 19 69 149 71 51 297 312 26 13 140 129 110 75 67 44 93 33 105 131 79 33 62 56 44 68 89 94 101 108 107 111 111 116 119 121 124 124 121 124 127 124 121 123
46 33 5 346 160 49 27 19 19 38 132 106 90 113 104 66 58 62 33 59 45 59 36 77 93 92 100 105 110 113 115 114 114 116 119 121 122 119 116 118 118 119 122 126
27 32 15 356 54 38 17 6 349 30 48 58 70 60 50 104 65 60 24 48 48 77 75 88 99 103 106 110 109 110 112 111 110 111 113 111 112 116 117 112 113 115 111 114